Wetbulb
42.88 43.14 43.32 44.73 46.10 46.13 45.59 47.95 47.05 44.05 49.66 55.67 56.63 61.27 63.91 64.22 63.96 66.77 66.72 54.79 53.60 53.44 54.00 55.52 56.54 57.37 57.71 58.37 58.63 58.95 59.48 59.76 59.83 60.00 59.96 60.33 60.62 60.86
41.55 42.02 41.88 42.13 43.42 45.05 46.08 46.13 45.90 47.37 46.32 54.35 56.65 59.44 63.06 63.63 63.52 65.75 66.99 56.80 51.98 51.48 51.47 53.17 54.49 56.06 56.10 56.16 56.52 56.79 57.56 58.10 58.43 58.50 58.91 59.39 59.95 60.26
39.53 39.67 39.90 41.19 40.89 42.53 44.56 45.69 46.28 44.96 47.05 51.98 56.94 59.27 59.38 59.33 62.70 64.42 65.58 65.22 58.62 50.93 50.24 51.21 51.55 53.11 53.41 53.45 53.40 54.30 55.22 55.96 56.62 57.17 57.79 58.52 59.47 60.07
36.74 37.47 37.60 38.62 39.17 40.14 40.68 41.40 43.74 46.16 45.07 47.78 54.84 56.79 58.57 58.60 59.77 61.18 63.39 64.14 64.89 51.67 49.80 50.02 50.73 50.82 51.06 50.72 50.86 51.36 51.85 52.30 52.91 53.98 55.18 56.48 57.47 58.65
36.17 36.72 36.50 36.76 37.06 38.44 39.52 39.74 40.40 43.07 44.50 46.05 50.57 56.15 57.55 59.44 58.75 57.64 58.34 62.70 62.92 54.33 48.99 48.81 49.66 50.57 50.04 49.79 50.35 50.17 49.27 48.90 48.90 49.81 50.35 51.13 52.71 54.58
35.51 36.55 37.09 38.04 38.24 38.76 38.94 37.92 37.61 39.02 43.03 43.81 47.58 51.73 55.53 57.71 57.31 55.05 54.22 58.62 60.40 52.78 52.30 52.10 49.77 48.74 49.08 48.99 48.70 49.07 48.90 48.36 47.81 47.45 47.27 47.09 47.81 49.79
34.90 36.09 37.90 38.06 38.13 37.78 37.65 37.20 36.10 37.39 38.98 41.37 42.56 50.85 53.60 54.79 54.34 54.95 55.46 58.14 58.36 51.35 50.44 52.12 52.93 51.98 50.52 47.56 50.74 48.56 47.80 47.81 47.45 47.09 46.36 45.82 45.46 46.55
33.20 35.21 36.47 36.95 37.73 36.33 35.78 35.64 35.19 33.79 34.73 35.12 41.04 44.51 50.87 54.49 56.09 55.94 53.01 54.23 49.80 48.10 45.42 38.57 42.92 48.74 49.41 51.78 49.14 46.55 45.42 45.98 45.98 45.98 45.46 44.72 44.17 43.79
32.88 33.28 33.92 35.24 35.70 35.97 34.89 33.38 33.19 33.31 32.12 34.35 35.05 39.82 47.29 54.24 56.27 55.19 53.73 54.51 54.28 49.46 44.45 35.67 36.02 35.49 38.03 40.73 42.67 44.14 44.32 44.68 44.50 43.94 42.44 40.79 39.43 38.45
32.01 32.10 32.68 32.84 33.42 32.13 30.25 30.72 31.44 33.68 35.11 38.16 39.41 43.14 47.75 50.38 55.74 56.68 55.44 53.51 45.44 47.04 46.09 35.85 34.22 32.77 34.58 37.48 40.35 41.25 41.47 41.45 40.87 40.12 38.90 37.53 36.70 36.13
30.34 31.20 31.25 31.24 29.78 29.07 28.97 28.79 30.03 31.81 34.87 36.39 37.62 37.89 38.65 39.10 47.27 57.01 54.45 49.51 37.48 39.62 39.82 35.47 32.59 32.03 32.41 32.95 36.38 39.49 39.16 38.56 38.31 37.87 37.42 36.93 36.28 35.80
28.29 29.36 28.37 28.16 27.41 27.76 27.75 28.06 27.83 29.07 30.05 30.95 34.04 35.82 41.42 46.13 43.40 53.07 56.75 51.23 42.01 36.21 38.01 34.94 34.04 32.92 31.46 32.23 33.86 35.67 36.39 37.02 37.24 37.35 37.32 36.89 36.35 34.82
26.25 25.68 27.22 26.08 26.11 26.68 27.65 28.55 27.68 28.48 27.93 28.87 31.72 32.50 35.97 49.63 52.39 53.01 55.25 56.26 49.89 42.56 40.13 36.18 34.94 35.49 33.48 30.04 32.03 33.86 34.94 34.91 35.13 36.09 37.10 36.90 36.76 35.20
23.52 24.57 25.32 25.51 25.53 25.50 26.36 26.60 27.61 27.68 27.76 26.97 32.00 32.34 35.41 46.53 51.42 52.34 47.22 54.61 55.69 54.32 42.04 41.66 37.30 37.07 32.50 30.85 29.75 31.80 33.13 34.04 34.57 34.17 34.91 36.03 36.32 35.56
22.76 23.48 23.97 23.86 23.98 23.91 24.28 25.05 26.18 26.47 26.20 24.82 29.68 33.28 37.39 48.79 40.93 36.39 35.85 37.12 36.58 40.93 44.01 43.61 43.82 39.99 38.75 34.37 30.44 31.15 30.92 32.12 33.83 33.12 33.70 33.79 33.52 34.29
21.19 22.35 21.78 22.02 21.35 21.68 22.76 23.57 25.18 24.99 24.15 24.56 26.33 34.71 42.70 40.73 44.15 41.63 39.11 38.03 34.72 33.45 34.40 38.93 44.43 42.85 39.84 38.01 35.13 30.89 32.80 29.70 32.45 32.62 32.94 33.16 33.52 34.58
20.68 20.72 19.17 18.38 17.97 18.40 19.69 20.49 22.27 22.71 21.47 24.49 25.29 28.38 34.14 38.21 38.93 41.29 38.57 36.94 35.62 33.21 33.46 35.24 35.49 35.54 36.94 36.19 33.55 33.04 32.14 31.30 32.49 32.16 32.07 31.24 32.82 33.70
20.08 17.89 15.88 15.77 15.64 15.99 16.67 17.48 19.53 20.23 21.06 23.53 25.22 26.26 27.46 32.29 34.04 35.13 36.58 40.02 37.30 35.31 32.59 32.32 33.73 33.46 33.21 32.35 35.40 32.59 32.47 31.42 32.02 32.32 32.43 30.38 29.08 31.41
17.74 17.05 15.74 14.51 14.59 14.99 15.62 16.37 16.98 19.28 21.06 21.80 24.84 25.24 26.82 27.63 31.70 32.59 32.94 33.84 34.02 35.54 34.44 34.74 36.50 38.07 34.92 27.26 28.83 34.01 31.01 30.90 30.90 30.55 30.97 30.59 28.23 28.73
17.85 16.22 15.66 14.79 14.29 14.11 14.68 15.46 16.43 17.62 18.76 20.31 23.13 25.39 25.22 26.30 25.61 27.11 30.40 32.41 32.86 32.47 32.50 34.67 36.67 38.66 38.14 29.57 27.10 29.22 32.96 31.14 30.04 28.19 27.06 27.98 27.89 28.80
16.40 16.31 16.48 15.35 14.29 14.30 14.34 14.84 15.82 16.21 17.12 18.88 21.92 23.83 25.40 25.32 25.34 24.80 25.70 27.85 29.69 30.92 28.51 26.15 28.90 31.85 31.44 30.88 26.91 26.69 29.15 31.88 31.29 27.63 26.19 24.43 23.56 24.24
16.48 16.02 16.31 15.75 14.70 14.11 13.94 13.83 14.10 15.19 15.38 17.17 20.15 23.28 24.66 25.47 25.52 26.95 26.37 24.52 24.78 25.19 25.48 27.72 29.92 30.92 30.79 28.15 25.56 25.54 24.78 26.90 29.65 29.92 30.00 28.27 24.63 21.02
16.54 16.32 15.74 15.74 15.48 14.92 13.86 12.88 12.75 13.07 13.75 15.76 18.84 22.11 24.11 24.15 25.06 26.19 26.59 26.43 26.72 26.38 26.90 25.52 26.96 28.63 26.70 25.95 24.35 23.29 23.74 24.85 26.11 26.06 27.58 29.33 28.45 27.46
MSLP
1013.38 1012.74 1012.15 1011.79 1011.07 1010.41 1009.82 1008.64 1007.38 1004.97 1002.17 1001.13 1000.47 1000.69 1000.70 1000.72 1000.55 1000.50 1000.78 1001.40 1002.28 1003.15 1004.12 1004.92 1005.81 1006.74 1007.60 1008.45 1009.20 1009.74 1010.57 1010.89 1011.68 1012.52 1013.16 1013.69 1014.19 1014.65
1013.10 1012.59 1011.91 1011.61 1010.77 1010.07 1009.17 1008.12 1007.56 1005.82 1002.41 1001.94 1000.21 999.68 999.62 999.74 999.58 999.50 999.08 999.14 1000.68 1001.79 1002.77 1003.76 1004.63 1005.53 1006.39 1007.34 1008.07 1008.90 1009.60 1010.03 1010.75 1011.61 1012.28 1012.77 1013.24 1013.74
1013.22 1012.70 1011.82 1011.49 1010.56 1009.75 1008.66 1007.77 1006.48 1006.00 1003.03 1001.10 1000.23 999.33 998.90 998.80 998.65 999.27 999.02 998.77 999.13 1000.31 1001.54 1002.29 1003.41 1004.32 1005.12 1006.09 1007.00 1007.77 1008.58 1009.16 1009.85 1010.67 1011.35 1011.91 1012.34 1012.84
1013.02 1012.45 1011.52 1010.83 1010.08 1009.44 1008.45 1007.51 1006.46 1005.21 1003.97 1001.29 999.66 998.61 997.94 997.52 997.78 998.19 998.26 998.34 997.56 998.96 1000.37 1001.29 1002.02 1002.98 1003.82 1004.75 1005.74 1006.63 1007.59 1008.25 1008.96 1009.61 1010.30 1010.97 1011.51 1011.98
1012.79 1011.92 1011.00 1010.27 1009.38 1008.58 1007.81 1007.15 1006.37 1005.01 1003.67 1001.82 999.28 998.23 997.33 996.67 996.28 997.92 999.00 996.35 997.53 997.52 999.11 1000.40 1001.17 1001.78 1002.74 1003.65 1004.50 1005.53 1006.46 1007.21 1007.91 1008.56 1009.19 1010.01 1010.59 1011.09
1012.21 1011.28 1010.20 1009.28 1008.49 1007.68 1007.11 1006.72 1006.12 1004.85 1003.08 1001.51 999.60 997.54 996.85 996.07 995.87 996.42 996.61 994.89 996.67 997.58 998.39 999.57 1000.51 1001.20 1001.85 1002.58 1003.51 1004.41 1005.40 1006.22 1006.84 1007.53 1008.18 1008.86 1009.52 1010.07
1011.30 1010.21 1009.24 1008.50 1008.03 1007.29 1006.58 1005.98 1005.65 1004.48 1003.07 1001.51 999.63 997.68 995.91 995.41 994.69 995.32 995.47 995.57 996.24 997.46 998.28 999.25 1000.00 1000.69 1001.36 1001.86 1002.53 1003.31 1004.25 1005.16 1005.90 1006.58 1007.31 1007.94 1008.49 1009.03
1010.65 1009.46 1008.75 1007.95 1006.82 1006.20 1005.77 1005.31 1005.26 1004.46 1003.01 1001.90 999.94 997.54 995.66 994.54 994.14 993.89 994.29 995.05 996.68 997.46 997.92 999.70 999.88 1000.10 1000.47 1000.96 1001.38 1002.14 1003.15 1004.21 1004.98 1005.67 1006.38 1006.95 1007.57 1008.21
1010.51 1009.45 1008.22 1007.30 1006.55 1005.52 1004.82 1004.44 1003.76 1003.09 1002.57 1001.43 999.66 997.90 996.16 994.24 993.44 993.40 993.57 993.55 994.68 995.96 996.75 999.69 1000.27 1000.65 1000.77 1000.82 1001.02 1001.44 1002.22 1003.20 1004.04 1004.87 1005.73 1006.47 1007.26 1007.98
1010.69 1009.67 1008.37 1007.19 1006.61 1005.95 1004.72 1003.21 1002.07 1001.01 1000.10 998.96 997.85 996.38 994.86 993.92 993.31 992.02 992.35 993.13 995.06 995.65 995.78 998.97 1000.17 1000.87 1001.10 1001.15 1001.35 1001.60 1001.98 1002.69 1003.46 1004.43 1005.40 1006.32 1007.21 1008.00
1010.81 1009.35 1008.33 1007.33 1006.70 1006.11 1004.42 1002.45 1000.61 999.37 998.50 997.30 996.29 995.54 994.49 993.53 992.68 990.94 990.96 992.05 993.91 995.10 996.30 997.90 999.82 1000.76 1001.68 1001.94 1001.98 1002.17 1002.52 1003.10 1003.80 1004.58 1005.49 1006.36 1007.15 1007.99
1010.52 1009.24 1008.42 1007.71 1006.69 1005.42 1003.89 1002.22 1000.19 998.76 997.69 996.43 994.87 993.78 992.57 990.84 990.80 989.83 988.93 990.36 992.78 994.89 995.46 996.82 998.94 999.58 1001.88 1002.52 1002.47 1002.72 1003.20 1003.72 1004.35 1005.08 1005.65 1006.24 1006.99 1007.81
1010.89 1009.58 1008.59 1007.63 1006.43 1004.89 1003.56 1002.15 1000.73 999.05 997.01 995.62 993.86 992.39 991.06 989.47 988.69 988.57 988.38 988.84 990.05 991.63 993.08 994.90 997.18 998.25 999.55 1001.57 1002.63 1002.99 1003.31 1003.96 1004.63 1005.62 1005.97 1006.48 1007.08 1007.45
1011.54 1010.35 1009.08 1007.78 1006.28 1004.65 1003.24 1001.90 1000.07 998.20 996.39 994.62 992.50 990.88 989.62 987.99 986.96 987.56 987.96 987.81 988.17 989.16 991.31 992.30 994.96 995.93 997.55 1000.27 1001.55 1002.87 1003.37 1003.87 1004.50 1005.32 1006.11 1006.52 1007.15 1007.68
1012.39 1010.88 1009.37 1007.78 1006.16 1004.61 1003.06 1001.30 999.69 997.89 995.83 993.64 991.14 989.12 988.06 986.54 986.45 987.31 988.12 988.44 989.16 989.13 989.59 990.70 991.77 994.26 995.42 997.08 999.41 1001.00 1002.58 1003.59 1004.16 1004.81 1005.71 1006.25 1006.58 1007.39
1012.37 1010.94 1009.73 1008.41 1006.84 1005.30 1003.36 1001.75 1000.04 998.49 996.67 994.33 991.54 988.27 986.44 985.37 985.93 986.75 987.71 988.42 989.09 990.28 990.08 990.33 990.89 992.38 994.20 995.68 997.10 999.49 1000.58 1001.48 1003.09 1004.11 1005.08 1006.08 1006.61 1007.00
1012.75 1011.42 1010.01 1008.53 1006.92 1005.53 1003.82 1002.31 1000.65 998.71 996.54 993.97 991.44 988.58 985.74 984.85 985.61 986.14 986.97 988.00 988.93 990.15 990.53 991.53 992.10 992.73 993.79 995.20 997.07 998.14 999.40 1000.68 1001.86 1003.03 1004.44 1005.78 1006.49 1006.79
1013.16 1012.05 1010.88 1009.78 1008.38 1006.79 1005.07 1003.22 1001.35 999.46 997.31 994.73 992.46 989.89 987.37 986.92 986.36 986.23 986.67 987.34 988.47 989.71 990.43 991.47 992.45 993.40 994.92 996.55 996.50 997.62 999.39 1000.38 1001.76 1003.07 1003.84 1004.66 1005.97 1006.80
1013.78 1012.82 1011.91 1010.92 1009.57 1008.07 1006.54 1004.78 1002.75 1000.63 998.51 996.28 994.08 991.51 990.00 989.33 988.25 987.44 987.50 987.61 988.26 989.35 989.99 990.57 992.11 991.99 993.20 995.70 997.74 997.59 998.08 1000.31 1001.61 1003.24 1004.77 1005.10 1006.10 1006.82
1014.70 1013.80 1012.82 1011.94 1010.76 1009.41 1007.85 1006.03 1004.00 1001.79 999.73 997.98 995.83 994.08 992.10 990.56 989.78 989.34 989.02 988.79 988.98 989.62 990.16 990.91 991.24 991.20 991.70 993.75 996.42 997.85 998.98 998.60 999.98 1002.89 1003.98 1005.76 1007.63 1007.55
1015.63 1014.76 1013.91 1012.94 1011.80 1010.45 1009.01 1007.31 1005.53 1003.50 1001.60 999.72 997.70 995.61 993.63 992.73 992.25 991.48 990.57 989.90 990.11 990.47 991.13 991.84 992.04 991.55 992.36 993.91 995.77 998.22 999.96 999.58 1000.66 1001.07 1003.51 1004.17 1007.86 1008.07
1016.68 1015.79 1014.78 1013.91 1012.84 1011.47 1009.94 1008.39 1006.63 1004.75 1003.01 1001.12 999.26 997.27 996.14 995.26 994.17 993.23 992.12 992.18 991.76 991.97 992.33 992.55 992.52 992.51 993.47 994.23 995.68 997.96 999.83 1001.07 1001.96 1002.62 1003.60 1003.66 1004.57 1007.20
1017.55 1016.67 1015.79 1014.80 1013.71 1012.49 1011.18 1009.67 1008.14 1006.53 1004.84 1002.90 1000.86 999.22 997.99 996.78 995.80 994.63 993.93 993.22 993.14 993.39 992.83 992.97 993.46 993.68 994.34 995.55 996.83 998.17 1000.16 1000.75 1001.60 1002.70 1004.37 1004.81 1005.24 1006.86
Wind_Speed
12 12 11 10 10 11 11 11 12 17 17 13 12 13 12 14 15 19 20 24 28 30 28 27 26 26 26 27 27 26 27 25 24 24 24 23 23 22
9 13 13 13 13 12 12 10 12 16 21 14 13 12 12 13 17 22 23 22 30 29 30 28 27 29 27 27 26 25 24 24 24 23 23 23 24 23
14 15 16 17 12 13 13 13 12 13 19 16 16 15 17 17 17 16 21 19 16 30 29 30 28 28 27 26 25 25 25 24 23 22 22 23 24 23
17 17 17 14 16 15 14 18 16 17 15 24 18 15 19 18 17 12 18 14 16 23 28 30 31 28 27 26 25 24 23 23 22 22 22 22 21 22
18 19 19 19 17 13 15 14 14 15 16 17 19 15 15 14 15 11 14 14 12 17 27 27 28 29 27 25 26 25 23 22 22 21 21 20 20 20
19 19 19 18 18 16 13 15 16 16 16 15 18 18 15 16 13 11 10 12 10 2 13 18 21 24 26 25 24 24 24 23 23 21 21 21 20 20
19 19 17 19 26 21 14 13 16 15 14 15 17 17 16 14 16 9 11 12 8 4 4 6 10 11 13 19 21 24 23 23 22 21 19 19 19 19
18 19 18 22 19 20 22 20 17 17 18 15 16 17 21 17 14 12 11 11 9 4 4 2 0 6 6 10 18 20 20 19 18 18 19 18 17 16
18 18 18 15 20 17 19 23 23 26 23 19 21 21 21 19 15 15 16 14 11 4 6 3 1 3 2 3 8 16 20 19 18 16 15 15 13 12
18 19 19 18 18 20 23 23 23 19 19 15 18 21 21 20 21 20 19 8 5 5 5 5 2 3 2 4 9 10 14 17 19 20 20 19 17 14
18 17 17 18 25 32 23 23 24 20 19 27 27 29 34 32 24 17 15 12 4 5 3 5 3 4 3 3 4 12 15 17 19 20 21 21 21 19
17 16 23 23 32 32 21 20 21 20 19 21 21 21 22 21 26 16 12 13 7 3 6 6 5 6 4 1 2 4 7 17 19 20 22 24 22 9
14 14 14 32 35 33 29 17 21 26 24 18 18 17 16 18 14 11 11 15 13 4 11 7 6 6 4 6 2 3 6 9 8 12 20 19 15 12
16 15 17 34 33 33 25 33 32 24 14 14 15 16 15 16 13 12 7 9 14 15 19 14 8 8 8 5 6 5 6 7 8 8 7 12 14 14
15 23 32 33 32 22 32 33 25 16 16 15 16 15 15 14 5 5 6 7 5 4 17 10 12 14 8 9 9 10 13 7 8 10 9 8 8 8
21 16 18 21 20 20 19 19 15 15 16 14 15 14 13 6 8 5 3 4 5 5 7 4 15 19 9 6 8 14 9 11 12 10 10 7 7 7
17 13 14 15 17 17 17 18 16 16 17 15 14 13 7 3 3 4 3 3 4 6 4 4 11 10 9 9 8 12 13 9 13 13 13 9 7 7
13 13 14 15 16 17 18 18 18 20 18 16 14 13 12 8 4 2 2 5 6 7 7 5 10 10 6 8 8 11 7 9 11 12 12 13 10 8
14 14 14 15 16 17 17 18 18 18 20 17 14 14 13 10 8 4 4 3 3 8 9 13 13 7 11 5 2 3 14 12 12 11 7 7 9 9
14 14 15 15 16 16 17 17 18 18 18 17 16 14 13 12 10 9 5 2 4 3 6 5 9 12 13 12 7 5 12 18 16 12 12 11 11 22
14 14 15 15 15 16 16 17 18 18 18 17 16 15 14 12 10 9 8 10 6 5 6 3 1 13 13 12 12 11 6 14 15 18 16 19 10 10
13 14 14 14 15 16 17 17 18 18 18 18 17 16 14 12 11 9 10 6 6 7 8 6 6 9 6 13 17 17 13 15 22 23 17 11 12 10
14 14 14 14 14 15 16 17 18 17 18 18 18 17 16 14 12 10 9 8 7 4 7 8 7 9 12 13 17 16 21 18 14 15 13 24 31 33
Wind_Direction
300 299 297 290 287 282 279 286 275 278 272 269 261 247 243 235 223 219 215 192 199 196 198 193 191 193 194 197 201 202 206 203 206 211 212 215 219 222
305 304 304 294 293 286 286 266 269 277 275 275 271 262 254 239 227 221 219 183 192 194 194 193 191 193 193 196 198 199 202 200 203 210 211 212 215 219
308 304 303 299 294 289 285 284 270 267 275 268 269 265 252 256 241 235 227 215 185 193 194 191 193 194 193 193 194 195 199 199 200 205 209 214 216 218
307 300 295 296 292 286 285 284 283 280 275 281 269 263 254 250 247 248 234 218 206 188 195 194 195 192 193 190 191 193 197 196 197 200 203 211 216 219
307 301 299 296 287 282 280 283 280 276 277 275 275 267 263 259 248 233 263 202 206 178 191 198 198 197 195 193 194 196 195 196 196 196 198 204 207 211
303 298 293 288 290 289 291 290 286 285 279 273 277 269 262 254 244 229 220 270 201 117 191 201 197 197 195 194 196 198 199 200 200 200 200 202 204 209
304 301 298 301 296 285 282 284 296 288 283 275 270 279 257 248 238 212 221 209 202 159 148 188 191 193 200 196 203 197 198 202 202 203 203 204 205 207
311 309 308 303 296 301 290 280 283 288 284 282 284 266 277 247 233 226 217 207 198 215 126 133 223 177 187 197 201 192 190 195 197 199 202 201 194 189
319 316 311 310 311 310 312 308 293 281 268 269 268 265 268 268 240 222 223 210 219 154 135 128 18 100 30 87 162 178 184 189 188 182 171 160 152 146
323 316 312 318 318 331 319 307 298 288 280 268 257 265 259 254 269 227 222 193 118 175 124 128 164 79 57 78 104 130 148 153 150 147 143 137 134 134
322 321 325 321 331 326 312 305 303 298 289 282 270 267 266 270 256 233 214 171 137 185 163 118 161 104 44 38 88 121 124 127 131 133 134 135 131 124
326 329 331 333 328 324 320 313 305 309 312 303 293 284 273 252 233 239 193 174 164 126 183 116 144 142 118 38 53 121 128 133 133 137 139 139 138 125
332 332 331 334 332 329 328 318 315 309 302 286 276 273 270 261 226 225 227 202 184 170 161 115 148 152 98 135 112 134 144 143 138 144 146 147 146 140
336 329 330 335 336 335 332 327 324 314 307 296 271 256 255 247 216 219 180 225 187 192 165 144 141 168 137 135 146 154 154 152 151 154 155 149 144 138
337 332 336 339 339 336 337 336 332 327 319 310 296 251 241 238 143 102 73 115 18 152 166 168 152 163 160 136 149 163 150 173 160 154 154 157 150 152
338 335 335 338 339 338 340 339 334 333 322 314 303 280 228 157 172 149 129 122 92 324 47 120 156 163 155 140 144 154 165 163 164 158 150 145 148 156
337 341 343 347 348 344 342 342 336 336 336 331 328 323 340 119 145 141 117 124 130 140 66 65 77 85 75 135 135 163 160 147 161 154 151 147 149 141
347 352 351 348 347 345 343 340 340 341 340 337 337 339 2 9 343 52 76 146 130 151 130 117 123 116 97 44 71 143 141 140 149 155 153 146 133 130
359 352 353 349 345 345 343 341 339 341 340 342 343 357 4 357 344 29 29 35 80 150 160 157 167 179 153 112 72 103 138 143 138 139 135 136 127 116
358 354 352 349 346 344 342 342 340 342 346 345 349 356 2 7 6 9 10 64 101 115 127 172 180 176 170 147 152 120 167 141 142 135 122 103 91 92
354 354 353 348 347 344 343 341 342 346 345 345 349 356 4 9 7 5 11 34 66 103 109 80 34 98 105 107 108 110 109 116 137 135 137 114 128 115
354 352 351 350 348 346 345 345 343 347 347 348 348 358 1 1 8 14 26 18 52 89 95 88 99 105 114 124 122 129 126 117 110 109 90 97 136 135
351 351 349 350 349 349 348 347 347 345 346 346 346 353 356 0 360 12 19 29 44 58 91 92 85 98 104 112 122 122 125 118 124 112 101 102 100 103